Location: Gorze? G�rny
(49.8500°N, 19.5000°E)
Time: 12:31:47
(UTC+00:00)

BREEZE M DEB (TANK) - Pass Details

Date: 13 May 2021
Orbit: 273 x 14489 km, 49.6° (Epoch: 22 June)

Event Time Altitude Azimuth Distance (km) Brightness Sun altitude
Rises 20:54:44 0° 285° (WNW) 3,078 6.8 -17.8°
Reaches altitude 10° 20:58:00 10° 269° (W) 1,470 4.8 -18.0°
Enters shadow 20:59:18 17° 246° (WSW) 949 3.5 -18.1°
